contact:dominique.lefevre@mio.osupytheas.fr, maurice.libes@osupytheas.fr, didier.mallarino@osupytheas.fr
Project:EMSO http://www.emso-fr.org/EMSO-France
Depth: 2436.0 m
Title:EMSO Ligure Ouest : Data MII capteur MICROCAT
DateTime_Computer,Latitude,Longitude,Temperature,Conductivity,Pressure,DateTime_Instrument
DateTime_Computer,Latitude,Longitude,degC,S m-1,dbar,DateTime_Instrument
2023-06-21T00:00:20Z,42.805,6.029,13.3027,4.60090,2470.871,2023-6-21T02:02:34Z
2023-06-21T00:03:23Z,42.805,6.029,13.3030,4.60092,2470.88,2023-6-21T02:05:37Z
2023-06-21T00:06:26Z,42.805,6.029,13.3024,4.60102,2470.847,2023-6-21T02:08:40Z
2023-06-21T00:09:29Z,42.805,6.029,13.3031,4.60107,2470.871,2023-6-21T02:11:43Z
2023-06-21T00:12:32Z,42.805,6.029,13.3034,4.60099,2470.81,2023-6-21T02:14:46Z
2023-06-21T00:15:35Z,42.805,6.029,13.3028,4.60091,2470.833,2023-6-21T02:17:50Z
2023-06-21T00:18:38Z,42.805,6.029,13.3031,4.60092,2470.833,2023-6-21T02:20:53Z
2023-06-21T00:21:41Z,42.805,6.029,13.3031,4.60093,2470.81,2023-6-21T02:23:56Z
2023-06-21T00:24:44Z,42.805,6.029,13.3029,4.60096,2470.833,2023-6-21T02:26:59Z
2023-06-21T00:27:47Z,42.805,6.029,13.3028,4.60098,2470.787,2023-6-21T02:30:02Z
2023-06-21T00:30:50Z,42.805,6.029,13.3028,4.60089,2470.833,2023-6-21T02:33:05Z
2023-06-21T00:33:53Z,42.805,6.029,13.3024,4.60103,2470.81,2023-6-21T02:36:08Z
2023-06-21T00:36:56Z,42.805,6.029,13.3024,4.60089,2470.81,2023-6-21T02:39:11Z
2023-06-21T00:40:00Z,42.805,6.029,13.3026,4.60107,2470.81,2023-6-21T02:42:14Z
2023-06-21T00:43:03Z,42.805,6.029,13.3022,4.60092,2470.81,2023-6-21T02:45:17Z
2023-06-21T00:46:06Z,42.805,6.029,13.3030,4.60100,2470.824,2023-6-21T02:48:20Z
2023-06-21T00:49:09Z,42.805,6.029,13.3029,4.60107,2470.787,2023-6-21T02:51:23Z
2023-06-21T00:52:12Z,42.805,6.029,13.3026,4.60095,2470.824,2023-6-21T02:54:27Z
2023-06-21T00:55:15Z,42.805,6.029,13.3032,4.60094,2470.81,2023-6-21T02:57:30Z
2023-06-21T00:58:18Z,42.805,6.029,13.3027,4.60099,2470.8,2023-6-21T03:00:33Z
2023-06-21T01:01:21Z,42.805,6.029,13.3023,4.60096,2470.777,2023-6-21T03:03:36Z
2023-06-21T01:04:24Z,42.805,6.029,13.3031,4.60094,2470.81,2023-6-21T03:06:39Z
2023-06-21T01:07:27Z,42.805,6.029,13.3031,4.60092,2470.787,2023-6-21T03:09:42Z
2023-06-21T01:10:30Z,42.805,6.029,13.3034,4.60106,2470.763,2023-6-21T03:12:45Z
2023-06-21T01:13:33Z,42.805,6.029,13.3027,4.60104,2470.81,2023-6-21T03:15:48Z
2023-06-21T01:16:37Z,42.805,6.029,13.3023,4.60097,2470.787,2023-6-21T03:18:51Z
2023-06-21T01:19:40Z,42.805,6.029,13.3026,4.60107,2470.787,2023-6-21T03:21:54Z
2023-06-21T01:22:43Z,42.805,6.029,13.3026,4.60095,2470.8,2023-6-21T03:24:57Z
2023-06-21T01:25:46Z,42.805,6.029,13.3029,4.60105,2470.8,2023-6-21T03:28:00Z
2023-06-21T01:28:49Z,42.805,6.029,13.3031,4.60092,2470.763,2023-6-21T03:31:03Z
2023-06-21T01:31:52Z,42.805,6.029,13.3030,4.60104,2470.754,2023-6-21T03:34:07Z
2023-06-21T01:34:55Z,42.805,6.029,13.3027,4.60092,2470.81,2023-6-21T03:37:10Z
2023-06-21T01:37:58Z,42.805,6.029,13.3028,4.60093,2470.787,2023-6-21T03:40:13Z
2023-06-21T01:41:01Z,42.805,6.029,13.3029,4.60103,2470.8,2023-6-21T03:43:16Z
2023-06-21T01:44:04Z,42.805,6.029,13.3028,4.60095,2470.787,2023-6-21T03:46:19Z
2023-06-21T01:47:07Z,42.805,6.029,13.3025,4.60087,2470.754,2023-6-21T03:49:22Z
2023-06-21T01:50:10Z,42.805,6.029,13.3033,4.60092,2470.754,2023-6-21T03:52:25Z
2023-06-21T01:53:14Z,42.805,6.029,13.3026,4.60099,2470.754,2023-6-21T03:55:28Z
2023-06-21T01:56:17Z,42.805,6.029,13.3025,4.60098,2470.754,2023-6-21T03:58:31Z
2023-06-21T01:59:20Z,42.805,6.029,13.3028,4.60104,2470.777,2023-6-21T04:01:34Z
2023-06-21T02:02:23Z,42.805,6.029,13.3036,4.60102,2470.74,2023-6-21T04:04:37Z
2023-06-21T02:05:26Z,42.805,6.029,13.3027,4.60110,2470.777,2023-6-21T04:07:40Z
2023-06-21T02:08:29Z,42.805,6.029,13.3026,4.60094,2470.763,2023-6-21T04:10:43Z
2023-06-21T02:11:32Z,42.805,6.029,13.3024,4.60087,2470.763,2023-6-21T04:13:47Z
2023-06-21T02:14:35Z,42.805,6.029,13.3027,4.60102,2470.763,2023-6-21T04:16:50Z
2023-06-21T02:17:38Z,42.805,6.029,13.3029,4.60099,2470.74,2023-6-21T04:19:53Z
2023-06-21T02:20:41Z,42.805,6.029,13.3037,4.60111,2470.74,2023-6-21T04:22:56Z
2023-06-21T02:23:44Z,42.805,6.029,13.3027,4.60094,2470.74,2023-6-21T04:25:59Z
2023-06-21T02:26:47Z,42.805,6.029,13.3031,4.60099,2470.74,2023-6-21T04:29:02Z
2023-06-21T02:29:50Z,42.805,6.029,13.3031,4.60099,2470.73,2023-6-21T04:32:05Z
2023-06-21T02:32:54Z,42.805,6.029,13.3031,4.60094,2470.763,2023-6-21T04:35:08Z
2023-06-21T02:35:57Z,42.805,6.029,13.3032,4.60101,2470.777,2023-6-21T04:38:11Z
2023-06-21T02:39:00Z,42.805,6.029,13.3030,4.60100,2470.763,2023-6-21T04:41:14Z
2023-06-21T02:42:03Z,42.805,6.029,13.3026,4.60094,2470.74,2023-6-21T04:44:17Z
2023-06-21T02:45:06Z,42.805,6.029,13.3037,4.60104,2470.763,2023-6-21T04:47:20Z
2023-06-21T02:48:09Z,42.805,6.029,13.3029,4.60092,2470.74,2023-6-21T04:50:24Z
2023-06-21T02:51:12Z,42.805,6.029,13.3028,4.60095,2470.754,2023-6-21T04:53:27Z
2023-06-21T02:54:15Z,42.805,6.029,13.3028,4.60092,2470.754,2023-6-21T04:56:30Z
2023-06-21T02:57:18Z,42.805,6.029,13.3030,4.60106,2470.777,2023-6-21T04:59:33Z
2023-06-21T03:00:21Z,42.805,6.029,13.3034,4.60104,2470.754,2023-6-21T05:02:36Z
2023-06-21T03:03:24Z,42.805,6.029,13.3036,4.60108,2470.74,2023-6-21T05:05:39Z
2023-06-21T03:06:27Z,42.805,6.029,13.3028,4.60101,2470.754,2023-6-21T05:08:42Z
2023-06-21T03:09:31Z,42.805,6.029,13.3027,4.60102,2470.73,2023-6-21T05:11:45Z
2023-06-21T03:12:34Z,42.805,6.029,13.3027,4.60096,2470.717,2023-6-21T05:14:48Z
2023-06-21T03:15:37Z,42.805,6.029,13.3028,4.60102,2470.777,2023-6-21T05:17:51Z
2023-06-21T03:18:40Z,42.805,6.029,13.3031,4.60111,2470.763,2023-6-21T05:20:54Z
2023-06-21T03:21:43Z,42.805,6.029,13.3026,4.60093,2470.74,2023-6-21T05:23:57Z
2023-06-21T03:24:46Z,42.805,6.029,13.3026,4.60096,2470.754,2023-6-21T05:27:01Z
2023-06-21T03:27:49Z,42.805,6.029,13.3032,4.60106,2470.73,2023-6-21T05:30:04Z
2023-06-21T03:30:52Z,42.805,6.029,13.3029,4.60095,2470.787,2023-6-21T05:33:07Z
2023-06-21T03:33:55Z,42.805,6.029,13.3034,4.60098,2470.754,2023-6-21T05:36:10Z
2023-06-21T03:36:58Z,42.805,6.029,13.3028,4.60093,2470.717,2023-6-21T05:39:13Z
2023-06-21T03:40:01Z,42.805,6.029,13.3035,4.60104,2470.74,2023-6-21T05:42:16Z
2023-06-21T03:43:04Z,42.805,6.029,13.3030,4.60091,2470.717,2023-6-21T05:45:19Z
2023-06-21T03:46:07Z,42.805,6.029,13.3034,4.60106,2470.754,2023-6-21T05:48:22Z
2023-06-21T03:49:11Z,42.805,6.029,13.3034,4.60106,2470.693,2023-6-21T05:51:25Z
2023-06-21T03:52:14Z,42.805,6.029,13.3030,4.60103,2470.74,2023-6-21T05:54:28Z
2023-06-21T03:55:17Z,42.805,6.029,13.3030,4.60101,2470.73,2023-6-21T05:57:31Z
2023-06-21T03:58:20Z,42.805,6.029,13.3030,4.60097,2470.73,2023-6-21T06:00:34Z
2023-06-21T04:01:23Z,42.805,6.029,13.3034,4.60102,2470.74,2023-6-21T06:03:38Z
2023-06-21T04:04:26Z,42.805,6.029,13.3029,4.60098,2470.74,2023-6-21T06:06:41Z
2023-06-21T04:07:29Z,42.805,6.029,13.3034,4.60112,2470.74,2023-6-21T06:09:44Z
2023-06-21T04:10:32Z,42.805,6.029,13.3034,4.60105,2470.717,2023-6-21T06:12:47Z
2023-06-21T04:13:35Z,42.805,6.029,13.3028,4.60092,2470.717,2023-6-21T06:15:50Z
2023-06-21T04:16:38Z,42.805,6.029,13.3036,4.60095,2470.693,2023-6-21T06:18:53Z
2023-06-21T04:19:41Z,42.805,6.029,13.3035,4.60103,2470.754,2023-6-21T06:21:56Z
2023-06-21T04:22:44Z,42.805,6.029,13.3029,4.60102,2470.754,2023-6-21T06:24:59Z
2023-06-21T04:25:48Z,42.805,6.029,13.3027,4.60110,2470.74,2023-6-21T06:28:02Z
2023-06-21T04:28:51Z,42.805,6.029,13.3035,4.60108,2470.754,2023-6-21T06:31:05Z
2023-06-21T04:31:54Z,42.805,6.029,13.3034,4.60100,2470.73,2023-6-21T06:34:08Z
2023-06-21T04:34:57Z,42.805,6.029,13.3027,4.60097,2470.717,2023-6-21T06:37:11Z
2023-06-21T04:38:00Z,42.805,6.029,13.3040,4.60100,2470.74,2023-6-21T06:40:14Z
2023-06-21T04:41:03Z,42.805,6.029,13.3034,4.60102,2470.73,2023-6-21T06:43:18Z
2023-06-21T04:44:06Z,42.805,6.029,13.3026,4.60100,2470.717,2023-6-21T06:46:21Z
2023-06-21T04:47:09Z,42.805,6.029,13.3026,4.60104,2470.74,2023-6-21T06:49:24Z
2023-06-21T04:50:12Z,42.805,6.029,13.3027,4.60094,2470.73,2023-6-21T06:52:27Z
2023-06-21T04:53:15Z,42.805,6.029,13.3026,4.60092,2470.74,2023-6-21T06:55:30Z
2023-06-21T04:56:18Z,42.805,6.029,13.3033,4.60107,2470.717,2023-6-21T06:58:33Z
2023-06-21T04:59:21Z,42.805,6.029,13.3031,4.60095,2470.717,2023-6-21T07:01:36Z
2023-06-21T05:02:25Z,42.805,6.029,13.3029,4.60102,2470.74,2023-6-21T07:04:39Z
2023-06-21T05:05:28Z,42.805,6.029,13.3029,4.60091,2470.73,2023-6-21T07:07:42Z
2023-06-21T05:08:31Z,42.805,6.029,13.3029,4.60095,2470.74,2023-6-21T07:10:45Z
2023-06-21T05:11:34Z,42.805,6.029,13.3029,4.60091,2470.73,2023-6-21T07:13:48Z
2023-06-21T05:14:37Z,42.805,6.029,13.3032,4.60099,2470.717,2023-6-21T07:16:51Z
2023-06-21T05:17:40Z,42.805,6.029,13.3027,4.60098,2470.74,2023-6-21T07:19:55Z
2023-06-21T05:20:43Z,42.805,6.029,13.3030,4.60094,2470.754,2023-6-21T07:22:58Z
2023-06-21T05:23:46Z,42.805,6.029,13.3026,4.60102,2470.763,2023-6-21T07:26:01Z
2023-06-21T05:26:49Z,42.805,6.029,13.3034,4.60103,2470.754,2023-6-21T07:29:04Z
2023-06-21T05:29:52Z,42.805,6.029,13.3030,4.60096,2470.754,2023-6-21T07:32:07Z
2023-06-21T05:32:55Z,42.805,6.029,13.3027,4.60098,2470.73,2023-6-21T07:35:10Z
2023-06-21T05:35:58Z,42.805,6.029,13.3028,4.60099,2470.763,2023-6-21T07:38:13Z
2023-06-21T05:39:01Z,42.805,6.029,13.3036,4.60104,2470.74,2023-6-21T07:41:16Z
2023-06-21T05:42:05Z,42.805,6.029,13.3035,4.60107,2470.74,2023-6-21T07:44:19Z
2023-06-21T05:45:08Z,42.805,6.029,13.3036,4.60102,2470.74,2023-6-21T07:47:22Z
2023-06-21T05:48:11Z,42.805,6.029,13.3031,4.60104,2470.74,2023-6-21T07:50:25Z
2023-06-21T05:51:14Z,42.805,6.029,13.3024,4.60101,2470.763,2023-6-21T07:53:28Z
2023-06-21T05:54:17Z,42.805,6.029,13.3034,4.60117,2470.777,2023-6-21T07:56:31Z
2023-06-21T05:57:20Z,42.805,6.029,13.3034,4.60105,2470.754,2023-6-21T07:59:35Z
2023-06-21T06:00:23Z,42.805,6.029,13.3029,4.60101,2470.777,2023-6-21T08:02:38Z
2023-06-21T06:03:26Z,42.805,6.029,13.3029,4.60104,2470.74,2023-6-21T08:05:41Z
2023-06-21T06:06:29Z,42.805,6.029,13.3031,4.60106,2470.763,2023-6-21T08:08:44Z
2023-06-21T06:09:32Z,42.805,6.029,13.3029,4.60097,2470.763,2023-6-21T08:11:47Z
2023-06-21T06:12:35Z,42.805,6.029,13.3029,4.60102,2470.74,2023-6-21T08:14:50Z
2023-06-21T06:15:38Z,42.805,6.029,13.3033,4.60095,2470.754,2023-6-21T08:17:53Z
2023-06-21T06:18:42Z,42.805,6.029,13.3034,4.60104,2470.763,2023-6-21T08:20:56Z
2023-06-21T06:21:45Z,42.805,6.029,13.3036,4.60100,2470.763,2023-6-21T08:23:59Z
2023-06-21T06:24:48Z,42.805,6.029,13.3033,4.60121,2470.763,2023-6-21T08:27:02Z
2023-06-21T06:27:51Z,42.805,6.029,13.3034,4.60103,2470.777,2023-6-21T08:30:05Z
2023-06-21T06:30:54Z,42.805,6.029,13.3038,4.60103,2470.763,2023-6-21T08:33:09Z
2023-06-21T06:33:57Z,42.805,6.029,13.3035,4.60099,2470.763,2023-6-21T08:36:12Z
2023-06-21T06:37:00Z,42.805,6.029,13.3032,4.60114,2470.763,2023-6-21T08:39:15Z
2023-06-21T06:40:03Z,42.805,6.029,13.3024,4.60114,2470.8,2023-6-21T08:42:18Z
2023-06-21T06:43:06Z,42.805,6.029,13.3034,4.60111,2470.777,2023-6-21T08:45:21Z
2023-06-21T06:46:09Z,42.805,6.029,13.3034,4.60114,2470.787,2023-6-21T08:48:24Z
2023-06-21T06:49:13Z,42.805,6.029,13.3031,4.60108,2470.777,2023-6-21T08:51:27Z
2023-06-21T06:52:16Z,42.805,6.029,13.3026,4.60094,2470.787,2023-6-21T08:54:30Z
2023-06-21T06:55:19Z,42.805,6.029,13.3034,4.60110,2470.8,2023-6-21T08:57:33Z
2023-06-21T06:58:22Z,42.805,6.029,13.3029,4.60104,2470.787,2023-6-21T09:00:36Z
2023-06-21T07:01:25Z,42.805,6.029,13.3031,4.60114,2470.81,2023-6-21T09:03:39Z
2023-06-21T07:04:28Z,42.805,6.029,13.3036,4.60107,2470.8,2023-6-21T09:06:43Z
2023-06-21T07:07:31Z,42.805,6.029,13.3026,4.60092,2470.74,2023-6-21T09:09:46Z
2023-06-21T07:10:34Z,42.805,6.029,13.3024,4.60101,2470.777,2023-6-21T09:12:49Z
2023-06-21T07:13:37Z,42.805,6.029,13.3030,4.60093,2470.777,2023-6-21T09:15:52Z
2023-06-21T07:16:40Z,42.805,6.029,13.3031,4.60102,2470.787,2023-6-21T09:18:55Z
2023-06-21T07:19:43Z,42.805,6.029,13.3029,4.60095,2470.787,2023-6-21T09:21:58Z
2023-06-21T07:22:46Z,42.805,6.029,13.3030,4.60097,2470.763,2023-6-21T09:25:01Z
2023-06-21T07:25:49Z,42.805,6.029,13.3030,4.60107,2470.763,2023-6-21T09:28:04Z
2023-06-21T07:28:53Z,42.805,6.029,13.3038,4.60119,2470.81,2023-6-21T09:31:07Z
2023-06-21T07:31:56Z,42.805,6.029,13.3035,4.60110,2470.824,2023-6-21T09:34:10Z
2023-06-21T07:34:59Z,42.805,6.029,13.3035,4.60095,2470.787,2023-6-21T09:37:13Z
2023-06-21T07:38:02Z,42.805,6.029,13.3031,4.60106,2470.824,2023-6-21T09:40:16Z
2023-06-21T07:41:05Z,42.805,6.029,13.3031,4.60095,2470.81,2023-6-21T09:43:20Z
2023-06-21T07:44:08Z,42.805,6.029,13.3028,4.60105,2470.8,2023-6-21T09:46:23Z
2023-06-21T07:47:11Z,42.805,6.029,13.3036,4.60110,2470.8,2023-6-21T09:49:26Z
2023-06-21T07:50:14Z,42.805,6.029,13.3029,4.60101,2470.787,2023-6-21T09:52:29Z
2023-06-21T07:53:17Z,42.805,6.029,13.3026,4.60094,2470.81,2023-6-21T09:55:32Z
2023-06-21T07:56:20Z,42.805,6.029,13.3030,4.60099,2470.824,2023-6-21T09:58:35Z
2023-06-21T07:59:23Z,42.805,6.029,13.3028,4.60101,2470.787,2023-6-21T10:01:38Z
2023-06-21T08:02:26Z,42.805,6.029,13.3030,4.60105,2470.81,2023-6-21T10:04:41Z
2023-06-21T08:05:30Z,42.805,6.029,13.3032,4.60110,2470.787,2023-6-21T10:07:44Z
2023-06-21T08:08:33Z,42.805,6.029,13.3029,4.60095,2470.787,2023-6-21T10:10:47Z
2023-06-21T08:11:36Z,42.805,6.029,13.3028,4.60096,2470.787,2023-6-21T10:13:50Z
2023-06-21T08:14:39Z,42.805,6.029,13.3027,4.60097,2470.824,2023-6-21T10:16:53Z
2023-06-21T08:17:42Z,42.805,6.029,13.3025,4.60095,2470.824,2023-6-21T10:19:56Z
2023-06-21T08:20:45Z,42.805,6.029,13.3029,4.60103,2470.81,2023-6-21T10:23:00Z
2023-06-21T08:23:48Z,42.805,6.029,13.3036,4.60108,2470.833,2023-6-21T10:26:03Z
2023-06-21T08:26:51Z,42.805,6.029,13.3026,4.60103,2470.833,2023-6-21T10:29:06Z
2023-06-21T08:29:54Z,42.805,6.029,13.3030,4.60101,2470.8,2023-6-21T10:32:09Z
2023-06-21T08:32:57Z,42.805,6.029,13.3036,4.60106,2470.81,2023-6-21T10:35:12Z
2023-06-21T08:36:00Z,42.805,6.029,13.3034,4.60106,2470.833,2023-6-21T10:38:15Z
2023-06-21T08:39:03Z,42.805,6.029,13.3031,4.60107,2470.81,2023-6-21T10:41:18Z
2023-06-21T08:42:07Z,42.805,6.029,13.3029,4.60092,2470.81,2023-6-21T10:44:21Z
2023-06-21T08:45:10Z,42.805,6.029,13.3029,4.60093,2470.824,2023-6-21T10:47:24Z
2023-06-21T08:48:13Z,42.805,6.029,13.3029,4.60091,2470.847,2023-6-21T10:50:27Z
2023-06-21T08:51:16Z,42.805,6.029,13.3033,4.60103,2470.833,2023-6-21T10:53:30Z
2023-06-21T08:54:19Z,42.805,6.029,13.3026,4.60116,2470.81,2023-6-21T10:56:34Z
2023-06-21T08:57:22Z,42.805,6.029,13.3039,4.60110,2470.833,2023-6-21T10:59:37Z
2023-06-21T09:00:25Z,42.805,6.029,13.3027,4.60105,2470.824,2023-6-21T11:02:40Z
2023-06-21T09:03:28Z,42.805,6.029,13.3031,4.60102,2470.833,2023-6-21T11:05:43Z
2023-06-21T09:06:31Z,42.805,6.029,13.3038,4.60099,2470.8,2023-6-21T11:08:46Z
2023-06-21T09:09:34Z,42.805,6.029,13.3034,4.60098,2470.833,2023-6-21T11:11:49Z
2023-06-21T09:12:37Z,42.805,6.029,13.3031,4.60094,2470.8,2023-6-21T11:14:52Z
2023-06-21T09:15:41Z,42.805,6.029,13.3030,4.60106,2470.847,2023-6-21T11:17:55Z
2023-06-21T09:18:44Z,42.805,6.029,13.3026,4.60099,2470.833,2023-6-21T11:20:58Z
2023-06-21T09:21:47Z,42.805,6.029,13.3026,4.60097,2470.81,2023-6-21T11:24:01Z
2023-06-21T09:24:50Z,42.805,6.029,13.3029,4.60097,2470.81,2023-6-21T11:27:04Z
2023-06-21T09:27:53Z,42.805,6.029,13.3028,4.60107,2470.833,2023-6-21T11:30:07Z
2023-06-21T09:30:56Z,42.805,6.029,13.3033,4.60115,2470.787,2023-6-21T11:33:11Z
2023-06-21T09:33:59Z,42.805,6.029,13.3029,4.60114,2470.8,2023-6-21T11:36:14Z
2023-06-21T09:37:02Z,42.805,6.029,13.3031,4.60103,2470.8,2023-6-21T11:39:17Z
2023-06-21T09:40:05Z,42.805,6.029,13.3030,4.60105,2470.763,2023-6-21T11:42:20Z
2023-06-21T09:43:08Z,42.805,6.029,13.3031,4.60117,2470.81,2023-6-21T11:45:23Z
2023-06-21T09:46:11Z,42.805,6.029,13.3034,4.60110,2470.81,2023-6-21T11:48:26Z
2023-06-21T09:49:14Z,42.805,6.029,13.3031,4.60111,2470.787,2023-6-21T11:51:29Z
2023-06-21T09:52:18Z,42.805,6.029,13.3029,4.60104,2470.787,2023-6-21T11:54:32Z
2023-06-21T09:55:21Z,42.805,6.029,13.3031,4.60102,2470.81,2023-6-21T11:57:35Z
2023-06-21T09:58:24Z,42.805,6.029,13.3030,4.60096,2470.824,2023-6-21T12:00:38Z
2023-06-21T10:01:27Z,42.805,6.029,13.3032,4.60101,2470.763,2023-6-21T12:03:41Z
2023-06-21T10:04:30Z,42.805,6.029,13.3033,4.60119,2470.8,2023-6-21T12:06:45Z
2023-06-21T10:07:33Z,42.805,6.029,13.3031,4.60102,2470.74,2023-6-21T12:09:48Z
2023-06-21T10:10:36Z,42.805,6.029,13.3030,4.60103,2470.787,2023-6-21T12:12:51Z
2023-06-21T10:13:39Z,42.805,6.029,13.3026,4.60099,2470.777,2023-6-21T12:15:54Z
2023-06-21T10:16:42Z,42.805,6.029,13.3033,4.60117,2470.8,2023-6-21T12:18:57Z
2023-06-21T10:19:45Z,42.805,6.029,13.3031,4.60114,2470.787,2023-6-21T12:22:00Z
2023-06-21T10:22:48Z,42.805,6.029,13.3031,4.60101,2470.763,2023-6-21T12:25:03Z
2023-06-21T10:25:51Z,42.805,6.029,13.3026,4.60094,2470.8,2023-6-21T12:28:06Z
2023-06-21T10:28:55Z,42.805,6.029,13.3026,4.60099,2470.787,2023-6-21T12:31:09Z
2023-06-21T10:31:58Z,42.805,6.029,13.3034,4.60111,2470.824,2023-6-21T12:34:12Z
2023-06-21T10:35:01Z,42.805,6.029,13.3030,4.60103,2470.787,2023-6-21T12:37:15Z
2023-06-21T10:38:04Z,42.805,6.029,13.3029,4.60096,2470.787,2023-6-21T12:40:18Z
2023-06-21T10:41:07Z,42.805,6.029,13.3028,4.60094,2470.8,2023-6-21T12:43:22Z
2023-06-21T10:44:10Z,42.805,6.029,13.3027,4.60097,2470.787,2023-6-21T12:46:25Z
2023-06-21T10:47:13Z,42.805,6.029,13.3034,4.60106,2470.777,2023-6-21T12:49:28Z
2023-06-21T10:50:16Z,42.805,6.029,13.3028,4.60097,2470.787,2023-6-21T12:52:31Z
2023-06-21T10:53:19Z,42.805,6.029,13.3029,4.60096,2470.717,2023-6-21T12:55:34Z
2023-06-21T10:56:22Z,42.805,6.029,13.3030,4.60102,2470.763,2023-6-21T12:58:37Z
2023-06-21T10:59:25Z,42.805,6.029,13.3031,4.60102,2470.763,2023-6-21T13:01:40Z
2023-06-21T11:02:29Z,42.805,6.029,13.3026,4.60112,2470.74,2023-6-21T13:04:43Z
2023-06-21T11:05:32Z,42.805,6.029,13.3027,4.60097,2470.754,2023-6-21T13:07:46Z
2023-06-21T11:08:35Z,42.805,6.029,13.3028,4.60099,2470.74,2023-6-21T13:10:49Z
2023-06-21T11:11:38Z,42.805,6.029,13.3031,4.60114,2470.777,2023-6-21T13:13:52Z
2023-06-21T11:14:41Z,42.805,6.029,13.3031,4.60099,2470.777,2023-6-21T13:16:55Z
2023-06-21T11:17:44Z,42.805,6.029,13.3031,4.60107,2470.763,2023-6-21T13:19:59Z
2023-06-21T11:20:47Z,42.805,6.029,13.3036,4.60112,2470.777,2023-6-21T13:23:02Z
2023-06-21T11:23:50Z,42.805,6.029,13.3031,4.60099,2470.777,2023-6-21T13:26:05Z
2023-06-21T11:26:53Z,42.805,6.029,13.3031,4.60101,2470.717,2023-6-21T13:29:08Z
2023-06-21T11:29:56Z,42.805,6.029,13.3028,4.60095,2470.717,2023-6-21T13:32:11Z
2023-06-21T11:32:59Z,42.805,6.029,13.3030,4.60096,2470.74,2023-6-21T13:35:14Z
2023-06-21T11:36:02Z,42.805,6.029,13.3031,4.60093,2470.74,2023-6-21T13:38:17Z
2023-06-21T11:39:06Z,42.805,6.029,13.3034,4.60102,2470.74,2023-6-21T13:41:20Z
2023-06-21T11:42:09Z,42.805,6.029,13.3033,4.60097,2470.717,2023-6-21T13:44:23Z
2023-06-21T11:45:12Z,42.805,6.029,13.3031,4.60109,2470.73,2023-6-21T13:47:26Z
2023-06-21T11:48:15Z,42.805,6.029,13.3028,4.60105,2470.73,2023-6-21T13:50:29Z
2023-06-21T11:51:18Z,42.805,6.029,13.3026,4.60094,2470.777,2023-6-21T13:53:33Z
2023-06-21T11:54:21Z,42.805,6.029,13.3031,4.60113,2470.74,2023-6-21T13:56:36Z
2023-06-21T11:57:24Z,42.805,6.029,13.3032,4.60109,2470.763,2023-6-21T13:59:39Z
2023-06-21T12:00:27Z,42.805,6.029,13.3039,4.60111,2470.73,2023-6-21T14:02:42Z
2023-06-21T12:03:30Z,42.805,6.029,13.3031,4.60099,2470.74,2023-6-21T14:05:45Z
2023-06-21T12:06:33Z,42.805,6.029,13.3031,4.60097,2470.74,2023-6-21T14:08:48Z
2023-06-21T12:09:36Z,42.805,6.029,13.3029,4.60096,2470.754,2023-6-21T14:11:51Z
2023-06-21T12:12:40Z,42.805,6.029,13.3029,4.60107,2470.717,2023-6-21T14:14:54Z
2023-06-21T12:15:43Z,42.805,6.029,13.3038,4.60099,2470.717,2023-6-21T14:17:57Z
2023-06-21T12:18:46Z,42.805,6.029,13.3026,4.60099,2470.717,2023-6-21T14:21:00Z
2023-06-21T12:21:49Z,42.805,6.029,13.3031,4.60104,2470.717,2023-6-21T14:24:03Z
2023-06-21T12:24:52Z,42.805,6.029,13.3026,4.60099,2470.693,2023-6-21T14:27:06Z
2023-06-21T12:27:55Z,42.805,6.029,13.3029,4.60102,2470.73,2023-6-21T14:30:10Z
2023-06-21T12:31:00Z,42.805,6.029,13.3026,4.60098,2470.754,2023-6-21T14:33:14Z
2023-06-21T12:34:03Z,42.805,6.029,13.3036,4.60099,2470.693,2023-6-21T14:36:17Z
2023-06-21T12:37:06Z,42.805,6.029,13.3026,4.60101,2470.67,2023-6-21T14:39:20Z
2023-06-21T12:40:09Z,42.805,6.029,13.3027,4.60096,2470.717,2023-6-21T14:42:24Z
2023-06-21T12:43:12Z,42.805,6.029,13.3029,4.60097,2470.73,2023-6-21T14:45:27Z
2023-06-21T12:46:15Z,42.805,6.029,13.3034,4.60107,2470.693,2023-6-21T14:48:30Z
2023-06-21T12:49:18Z,42.805,6.029,13.3031,4.60101,2470.684,2023-6-21T14:51:33Z
2023-06-21T12:52:21Z,42.805,6.029,13.3030,4.60099,2470.693,2023-6-21T14:54:36Z
2023-06-21T12:55:24Z,42.805,6.029,13.3031,4.60110,2470.693,2023-6-21T14:57:39Z
2023-06-21T12:58:27Z,42.805,6.029,13.3029,4.60112,2470.717,2023-6-21T15:00:42Z
2023-06-21T13:01:30Z,42.805,6.029,13.3036,4.60102,2470.707,2023-6-21T15:03:45Z
2023-06-21T13:04:34Z,42.805,6.029,13.3028,4.60108,2470.693,2023-6-21T15:06:48Z
2023-06-21T13:07:37Z,42.805,6.029,13.3026,4.60101,2470.693,2023-6-21T15:09:51Z
2023-06-21T13:10:40Z,42.805,6.029,13.3036,4.60099,2470.693,2023-6-21T15:12:54Z
2023-06-21T13:13:43Z,42.805,6.029,13.3029,4.60096,2470.693,2023-6-21T15:15:57Z
2023-06-21T13:16:46Z,42.805,6.029,13.3038,4.60106,2470.67,2023-6-21T15:19:01Z
2023-06-21T13:19:49Z,42.805,6.029,13.3031,4.60093,2470.717,2023-6-21T15:22:04Z
2023-06-21T13:22:52Z,42.805,6.029,13.3037,4.60108,2470.717,2023-6-21T15:25:07Z
2023-06-21T13:25:55Z,42.805,6.029,13.3029,4.60112,2470.707,2023-6-21T15:28:10Z
2023-06-21T13:28:58Z,42.805,6.029,13.3028,4.60108,2470.717,2023-6-21T15:31:13Z
2023-06-21T13:32:01Z,42.805,6.029,13.3026,4.60100,2470.693,2023-6-21T15:34:16Z
2023-06-21T13:35:04Z,42.805,6.029,13.3026,4.60091,2470.707,2023-6-21T15:37:19Z
2023-06-21T13:38:08Z,42.805,6.029,13.3026,4.60096,2470.679,2023-6-21T15:40:22Z
2023-06-21T13:41:11Z,42.805,6.029,13.3036,4.60101,2470.67,2023-6-21T15:43:25Z
2023-06-21T13:44:14Z,42.805,6.029,13.3024,4.60089,2470.67,2023-6-21T15:46:28Z
2023-06-21T13:47:17Z,42.805,6.029,13.3028,4.60090,2470.707,2023-6-21T15:49:31Z
2023-06-21T13:50:20Z,42.805,6.029,13.3032,4.60094,2470.693,2023-6-21T15:52:35Z
2023-06-21T13:53:23Z,42.805,6.029,13.3026,4.60099,2470.67,2023-6-21T15:55:38Z
2023-06-21T13:56:26Z,42.805,6.029,13.3036,4.60096,2470.67,2023-6-21T15:58:41Z
2023-06-21T13:59:29Z,42.805,6.029,13.3026,4.60097,2470.67,2023-6-21T16:01:44Z
2023-06-21T14:02:32Z,42.805,6.029,13.3031,4.60093,2470.707,2023-6-21T16:04:47Z
2023-06-21T14:05:35Z,42.805,6.029,13.3030,4.60101,2470.67,2023-6-21T16:07:50Z
2023-06-21T14:08:38Z,42.805,6.029,13.3028,4.60090,2470.684,2023-6-21T16:10:53Z
2023-06-21T14:11:42Z,42.805,6.029,13.3026,4.60092,2470.67,2023-6-21T16:13:56Z
2023-06-21T14:14:45Z,42.805,6.029,13.3025,4.60091,2470.693,2023-6-21T16:16:59Z
2023-06-21T14:17:48Z,42.805,6.029,13.3029,4.60115,2470.67,2023-6-21T16:20:02Z
2023-06-21T14:20:51Z,42.805,6.029,13.3025,4.60092,2470.67,2023-6-21T16:23:05Z
2023-06-21T14:23:54Z,42.805,6.029,13.3030,4.60094,2470.646,2023-6-21T16:26:09Z
2023-06-21T14:26:57Z,42.805,6.029,13.3031,4.60107,2470.67,2023-6-21T16:29:12Z
2023-06-21T14:30:00Z,42.805,6.029,13.3026,4.60111,2470.67,2023-6-21T16:32:15Z
2023-06-21T14:33:03Z,42.805,6.029,13.3033,4.60094,2470.646,2023-6-21T16:35:17Z
2023-06-21T14:36:06Z,42.805,6.029,13.3026,4.60094,2470.67,2023-6-21T16:38:20Z
2023-06-21T14:39:09Z,42.805,6.029,13.3031,4.60107,2470.67,2023-6-21T16:41:23Z
2023-06-21T14:42:12Z,42.805,6.029,13.3033,4.60104,2470.67,2023-6-21T16:44:26Z
2023-06-21T14:45:15Z,42.805,6.029,13.3031,4.60097,2470.67,2023-6-21T16:47:29Z
2023-06-21T14:48:18Z,42.805,6.029,13.3028,4.60113,2470.67,2023-6-21T16:50:33Z
2023-06-21T14:51:21Z,42.805,6.029,13.3026,4.60096,2470.67,2023-6-21T16:53:36Z
2023-06-21T14:54:24Z,42.805,6.029,13.3031,4.60111,2470.646,2023-6-21T16:56:39Z
2023-06-21T14:57:27Z,42.805,6.029,13.3021,4.60095,2470.646,2023-6-21T16:59:42Z
2023-06-21T15:00:30Z,42.805,6.029,13.3034,4.60101,2470.646,2023-6-21T17:02:45Z
2023-06-21T15:03:33Z,42.805,6.029,13.3032,4.60102,2470.646,2023-6-21T17:05:48Z
2023-06-21T15:06:36Z,42.805,6.029,13.3023,4.60091,2470.67,2023-6-21T17:08:51Z
2023-06-21T15:09:40Z,42.805,6.029,13.3025,4.60091,2470.67,2023-6-21T17:11:54Z
2023-06-21T15:12:43Z,42.805,6.029,13.3030,4.60097,2470.661,2023-6-21T17:14:57Z